Torna al catalogo

STARLINK-11676

AttivoComunicazioniVLEO
NORAD 63757·PAYLOAD·🇺🇸 United States

Lanciato Apr 29, 2025 da Cape Canaveral Space Force Station

Loading…

Prossimi Passaggi (prossime 24 ore)

TLE

AggiornatoSource: CelesTrak SupGP

Epoca: Sep 15, 2026, 03:10 UTC

1 63757C 25089G   26258.13243056 -.00098577  00000+0 -76555-3 0  2585
2 63757  43.0006 229.9107 0001575 264.9347 136.5543 15.70890207    13

Traccia STARLINK-11676 in tempo reale con AllMySat

Download on the App Store